User: anonymous   Login
Location: Dreilärchen
(47.9312°N, 8.6113°E)
Time: 10:03:39
(UTC+00:00)
Language:

BREEZE-M DEB (TANK) - Orbit

View from above orbital plane
View from above orbital plane
View from above satellite
View from above satellite

Ground track
Ground track

The orbit data is extracted from the following two-line orbital elements,

1 38089U 12007C   22227.07721212  .00001232  00000-0  31956-3 0  9990
2 38089  49.5587 133.0823 5014505 182.0739 174.7272  5.56148791210085
Epoch (UTC): 15 August 2022 01:51:11
Eccentricity: 0.5014505
inclination: 49.5587°
perigee height: 331 km
apogee height: 13826 km
right ascension of ascending node: 133.0823°
argument of perigee: 182.0739°
revolutions per day: 5.56148791
mean anomaly at epoch: 174.7272°
orbit number at epoch: 21008

The dashed part of the orbit path shows where the satellite is in the earth's shadow,  

DLR